TimeCST,TemperatureF,Dew PointF,Humidity,Sea Level PressureIn,VisibilityMPH,Wind Direction,Wind SpeedMPH,Gust SpeedMPH,PrecipitationIn,Events,Conditions,WindDirDegrees,DateUTC
12:15 AM,12.2,10.4,92,30.09,10.0,Calm,Calm,-,N/A,,Clear,0,2013-02-25 06:15:00
12:35 AM,12.2,10.4,92,30.09,10.0,Calm,Calm,-,N/A,,Clear,0,2013-02-25 06:35:00
12:55 AM,12.2,10.4,92,30.09,10.0,Calm,Calm,-,N/A,,Clear,0,2013-02-25 06:55:00
1:15 AM,10.4,8.6,92,30.09,10.0,Calm,Calm,-,N/A,,Clear,0,2013-02-25 07:15:00
1:35 AM,12.2,10.4,92,30.10,10.0,Calm,Calm,-,N/A,,Clear,0,2013-02-25 07:35:00
1:55 AM,10.4,8.6,92,30.09,10.0,Calm,Calm,-,N/A,,Clear,0,2013-02-25 07:55:00
2:15 AM,10.4,6.8,85,30.09,10.0,Calm,Calm,-,N/A,,Clear,0,2013-02-25 08:15:00
2:35 AM,10.4,5.0,79,30.09,10.0,Calm,Calm,-,N/A,,Clear,0,2013-02-25 08:35:00
2:55 AM,8.6,5.0,85,30.09,10.0,Calm,Calm,-,N/A,,Clear,0,2013-02-25 08:55:00
3:15 AM,8.6,5.0,85,30.08,10.0,Calm,Calm,-,N/A,,Clear,0,2013-02-25 09:15:00
3:35 AM,8.6,5.0,85,30.08,10.0,Calm,Calm,-,N/A,,Clear,0,2013-02-25 09:35:00
3:55 AM,5.0,1.4,85,30.07,10.0,Calm,Calm,-,N/A,,Clear,0,2013-02-25 09:55:00
4:15 AM,6.8,3.2,85,30.07,10.0,Calm,Calm,-,N/A,,Mostly Cloudy,0,2013-02-25 10:15:00
4:35 AM,8.6,5.0,85,30.07,10.0,Calm,Calm,-,N/A,,Overcast,0,2013-02-25 10:35:00
4:55 AM,12.2,10.4,92,30.07,10.0,Calm,Calm,-,N/A,,Overcast,0,2013-02-25 10:55:00
5:15 AM,14.0,12.2,93,30.07,10.0,Calm,Calm,-,N/A,,Overcast,0,2013-02-25 11:15:00
5:35 AM,15.8,12.2,86,30.07,10.0,Calm,Calm,-,N/A,,Overcast,0,2013-02-25 11:35:00
5:55 AM,15.8,12.2,86,30.07,10.0,Calm,Calm,-,N/A,,Overcast,0,2013-02-25 11:55:00
6:15 AM,17.6,14.0,86,30.08,10.0,Calm,Calm,-,N/A,,Overcast,0,2013-02-25 12:15:00
6:35 AM,17.6,15.8,93,30.08,10.0,Calm,Calm,-,N/A,,Overcast,0,2013-02-25 12:35:00
6:55 AM,17.6,15.8,93,30.09,10.0,Calm,Calm,-,N/A,,Overcast,0,2013-02-25 12:55:00
7:15 AM,19.4,17.6,93,30.10,7.0,Calm,Calm,-,N/A,,Overcast,0,2013-02-25 13:15:00
7:35 AM,19.4,17.6,93,30.10,7.0,Calm,Calm,-,N/A,,Overcast,0,2013-02-25 13:35:00
7:55 AM,19.4,17.6,93,30.10,10.0,Calm,Calm,-,N/A,,Overcast,0,2013-02-25 13:55:00
8:15 AM,21.2,17.6,86,30.09,10.0,Calm,Calm,-,N/A,,Overcast,0,2013-02-25 14:15:00
8:35 AM,21.2,17.6,86,30.09,7.0,Calm,Calm,-,N/A,,Overcast,0,2013-02-25 14:35:00
8:55 AM,21.2,19.4,93,30.09,7.0,Calm,Calm,-,N/A,,Overcast,0,2013-02-25 14:55:00
9:15 AM,21.2,19.4,93,30.09,7.0,Calm,Calm,-,N/A,,Overcast,0,2013-02-25 15:15:00
9:35 AM,23.0,19.4,86,30.09,7.0,Calm,Calm,-,N/A,,Overcast,0,2013-02-25 15:35:00
9:55 AM,23.0,19.4,86,30.10,10.0,Calm,Calm,-,N/A,,Overcast,0,2013-02-25 15:55:00
10:15 AM,24.8,21.2,86,30.09,10.0,Calm,Calm,-,N/A,,Overcast,0,2013-02-25 16:15:00
10:35 AM,26.6,21.2,80,30.09,10.0,Calm,Calm,-,N/A,,Overcast,0,2013-02-25 16:35:00
10:55 AM,28.4,21.2,74,30.09,10.0,Calm,Calm,-,N/A,,Overcast,0,2013-02-25 16:55:00
11:15 AM,28.4,21.2,74,30.08,10.0,Calm,Calm,-,N/A,,Overcast,0,2013-02-25 17:15:00
11:35 AM,30.2,21.2,69,30.09,10.0,Calm,Calm,-,0.01,,Overcast,0,2013-02-25 17:35:00
11:55 AM,32.0,21.2,64,30.08,10.0,Calm,Calm,-,0.02,,Overcast,0,2013-02-25 17:55:00
12:15 PM,32.0,21.2,64,30.08,10.0,Calm,Calm,-,0.01,,Overcast,0,2013-02-25 18:15:00
12:35 PM,32.0,21.2,64,30.07,10.0,Calm,Calm,-,0.01,,Overcast,0,2013-02-25 18:35:00
12:55 PM,32.0,21.2,64,30.07,10.0,Calm,Calm,-,0.01,,Overcast,0,2013-02-25 18:55:00
1:15 PM,32.0,21.2,64,30.06,10.0,Calm,Calm,-,N/A,,Mostly Cloudy,0,2013-02-25 19:15:00
1:35 PM,33.8,21.2,60,30.06,10.0,Calm,Calm,-,N/A,,Clear,0,2013-02-25 19:35:00
1:55 PM,33.8,21.2,60,30.05,10.0,West,4.6,-,N/A,,Scattered Clouds,270,2013-02-25 19:55:00
2:15 PM,32.0,21.2,64,30.05,10.0,Calm,Calm,-,N/A,,Mostly Cloudy,0,2013-02-25 20:15:00
2:35 PM,32.0,23.0,69,30.05,10.0,Calm,Calm,-,N/A,,Scattered Clouds,0,2013-02-25 20:35:00
2:55 PM,33.8,23.0,65,30.05,10.0,West,4.6,-,N/A,,Scattered Clouds,260,2013-02-25 20:55:00
3:15 PM,33.8,23.0,65,30.05,10.0,WSW,3.5,-,N/A,,Scattered Clouds,240,2013-02-25 21:15:00
3:35 PM,33.8,23.0,65,30.05,10.0,West,6.9,-,N/A,,Clear,260,2013-02-25 21:35:00
3:55 PM,33.8,23.0,65,30.04,10.0,WSW,3.5,-,N/A,,Clear,250,2013-02-25 21:55:00
4:15 PM,32.0,23.0,69,30.05,10.0,WSW,4.6,-,N/A,,Clear,250,2013-02-25 22:15:00
4:35 PM,33.8,23.0,65,30.05,10.0,West,4.6,-,N/A,,Clear,260,2013-02-25 22:35:00
4:55 PM,32.0,23.0,69,30.05,10.0,West,3.5,-,N/A,,Clear,280,2013-02-25 22:55:00
5:15 PM,32.0,23.0,69,30.05,10.0,West,3.5,-,N/A,,Clear,260,2013-02-25 23:15:00
5:35 PM,32.0,23.0,69,30.06,10.0,West,3.5,-,N/A,,Clear,280,2013-02-25 23:35:00
5:55 PM,30.2,21.2,69,30.05,10.0,Calm,Calm,-,N/A,,Clear,0,2013-02-25 23:55:00
6:15 PM,26.6,21.2,80,30.06,10.0,Calm,Calm,-,N/A,,Clear,0,2013-02-26 00:15:00
6:35 PM,26.6,21.2,80,30.06,10.0,Calm,Calm,-,N/A,,Clear,0,2013-02-26 00:35:00
6:55 PM,23.0,19.4,86,30.06,10.0,Calm,Calm,-,N/A,,Clear,0,2013-02-26 00:55:00
7:15 PM,23.0,19.4,86,30.06,10.0,Calm,Calm,-,N/A,,Clear,0,2013-02-26 01:15:00
7:35 PM,21.2,19.4,93,30.07,7.0,Calm,Calm,-,N/A,,Clear,0,2013-02-26 01:35:00
7:55 PM,21.2,21.2,100,30.07,7.0,Calm,Calm,-,N/A,,Clear,0,2013-02-26 01:55:00
8:15 PM,17.6,17.6,100,30.06,5.0,Calm,Calm,-,N/A,,Clear,0,2013-02-26 02:15:00
8:35 PM,17.6,17.6,100,30.07,7.0,Calm,Calm,-,N/A,,Clear,0,2013-02-26 02:35:00
8:55 PM,17.6,17.6,100,30.07,7.0,Calm,Calm,-,N/A,,Clear,0,2013-02-26 02:55:00
9:15 PM,17.6,15.8,93,30.06,7.0,Calm,Calm,-,N/A,,Clear,0,2013-02-26 03:15:00
9:35 PM,15.8,14.0,93,30.06,7.0,Calm,Calm,-,N/A,,Clear,0,2013-02-26 03:35:00
9:55 PM,17.6,14.0,86,30.05,7.0,Calm,Calm,-,N/A,,Clear,0,2013-02-26 03:55:00
10:15 PM,14.0,12.2,93,30.05,7.0,Calm,Calm,-,N/A,,Clear,0,2013-02-26 04:15:00
10:35 PM,14.0,12.2,93,30.04,7.0,Calm,Calm,-,N/A,,Clear,0,2013-02-26 04:35:00
10:55 PM,12.2,10.4,92,30.04,7.0,Calm,Calm,-,N/A,,Clear,0,2013-02-26 04:55:00
11:15 PM,10.4,8.6,92,30.05,5.0,Calm,Calm,-,N/A,,Clear,0,2013-02-26 05:15:00
11:35 PM,14.0,12.2,93,30.06,7.0,Calm,Calm,-,N/A,,Clear,0,2013-02-26 05:35:00
11:55 PM,10.4,6.8,85,30.05,7.0,Calm,Calm,-,N/A,,Clear,0,2013-02-26 05:55:00